EJU125 LOWW-EKCH

Flight info

Callsign EJU125
Flight time 1h 25m
Altitude 38000
Route UNGU2C/29 LANUX DCT VLM DCT HDO DCT POGAB DCT BAKDO DCT KOSEB T298 MONAK MONAK4A
Aircraft A320/M-SDE3FGHIRWY/LB1

Departure

Time 2026-04-25 21:09
Airport Vienna International Airport (LOWW)

Arrival

Time 2026-04-25 22:34
Airport Copenhagen Kastrup Airport (EKCH)
Time Latitude Longitude Altitude Speed Heading
2026-04-25 19:43 48.12131 16.54897 590 ft 0 kts 25°
2026-04-25 20:42 48.12127 16.54895 590 ft 2 kts 28°
2026-04-25 20:42 48.12113 16.54881 590 ft 2 kts 49°
2026-04-25 20:42 48.12103 16.54861 590 ft 2 kts 66°
2026-04-25 20:43 48.12097 16.54838 591 ft 2 kts 75°
2026-04-25 20:43 48.12095 16.54804 591 ft 3 kts 105°
2026-04-25 20:43 48.12097 16.54796 591 ft 0 kts 113°
2026-04-25 20:58 48.12088 16.54822 591 ft 15 kts 115°
2026-04-25 20:58 48.12032 16.54996 595 ft 13 kts 115°
2026-04-25 20:58 48.12004 16.55084 595 ft 14 kts 115°
2026-04-25 20:58 48.11932 16.55301 589 ft 24 kts 116°
2026-04-25 20:59 48.11906 16.55380 588 ft 2 kts 116°
2026-04-25 20:59 48.11900 16.55400 588 ft 10 kts 114°
2026-04-25 20:59 48.11848 16.55573 592 ft 19 kts 140°
2026-04-25 20:59 48.11751 16.55616 596 ft 13 kts 130°
2026-04-25 21:00 48.11702 16.55763 598 ft 24 kts 116°
2026-04-25 21:00 48.11676 16.55843 600 ft 29 kts 116°
2026-04-25 21:00 48.11387 16.56730 600 ft 36 kts 116°
2026-04-25 21:01 48.11307 16.56974 611 ft 24 kts 115°
2026-04-25 21:01 48.11228 16.57219 618 ft 31 kts 116°
2026-04-25 21:01 48.11125 16.57534 603 ft 34 kts 116°
2026-04-25 21:01 48.11060 16.57734 603 ft 9 kts 116°
2026-04-25 21:02 48.11050 16.57758 603 ft 1 kts 127°
2026-04-25 21:02 48.11046 16.57767 603 ft 0 kts 128°
2026-04-25 21:02 48.11045 16.57768 603 ft 0 kts 128°
2026-04-25 21:02 48.11044 16.57769 603 ft 1 kts 128°
2026-04-25 21:03 48.11069 16.57714 616 ft 12 kts 112°
2026-04-25 21:03 48.11117 16.57549 612 ft 23 kts 116°
2026-04-25 21:03 48.11149 16.57453 602 ft 1 kts 115°
2026-04-25 21:03 48.11150 16.57452 602 ft 0 kts 115°
2026-04-25 21:04 48.11150 16.57453 602 ft 1 kts 114°
2026-04-25 21:04 48.11113 16.57523 603 ft 14 kts 153°
2026-04-25 21:05 48.11073 16.57521 606 ft 0 kts 201°
2026-04-25 21:07 48.11060 16.57513 611 ft 9 kts 204°
2026-04-25 21:07 48.10971 16.57435 622 ft 14 kts 232°
2026-04-25 21:08 48.10981 16.57325 614 ft 1 kts 296°
2026-04-25 21:08 48.10981 16.57324 613 ft 1 kts 296°
2026-04-25 21:08 48.11060 16.57084 618 ft 67 kts 296°
2026-04-25 21:09 48.11938 16.54431 815 ft 192 kts 296°
2026-04-25 21:09 48.12387 16.52427 1435 ft 214 kts 276°
2026-04-25 21:09 48.12326 16.50114 2263 ft 233 kts 263°
2026-04-25 21:10 48.12087 16.47671 3051 ft 242 kts 261°
2026-04-25 21:10 48.11853 16.45152 3679 ft 242 kts 263°
2026-04-25 21:10 48.11699 16.42645 4150 ft 251 kts 271°
2026-04-25 21:10 48.11898 16.39961 4746 ft 266 kts 280°
2026-04-25 21:11 48.12272 16.37232 4961 ft 268 kts 282°
2026-04-25 21:11 48.12666 16.34595 5010 ft 268 kts 282°
2026-04-25 21:11 48.13066 16.31782 5015 ft 268 kts 281°
2026-04-25 21:11 48.13420 16.29050 5017 ft 268 kts 280°
2026-04-25 21:12 48.13745 16.26305 5017 ft 268 kts 279°
2026-04-25 21:12 48.14223 16.23622 5014 ft 268 kts 292°
2026-04-25 21:12 48.15151 16.21211 5017 ft 268 kts 308°
2026-04-25 21:12 48.15989 16.19859 5018 ft 268 kts 318°
2026-04-25 21:13 48.18083 16.17893 5079 ft 273 kts 334°
2026-04-25 21:13 48.19810 16.16629 5971 ft 275 kts 333°
2026-04-25 21:13 48.21524 16.15366 6965 ft 276 kts 333°
2026-04-25 21:13 48.23252 16.14087 7861 ft 279 kts 333°
2026-04-25 21:14 48.25009 16.12785 8724 ft 283 kts 333°
2026-04-25 21:14 48.26790 16.11464 9565 ft 287 kts 333°
2026-04-25 21:14 48.28590 16.10128 10317 ft 295 kts 333°
2026-04-25 21:14 48.30509 16.08704 10606 ft 319 kts 333°
2026-04-25 21:15 48.32563 16.07172 10922 ft 338 kts 333°
2026-04-25 21:15 48.34699 16.05576 11559 ft 346 kts 333°
2026-04-25 21:15 48.36869 16.03956 12281 ft 350 kts 333°
2026-04-25 21:15 48.39040 16.02341 12980 ft 354 kts 333°
2026-04-25 21:16 48.41254 16.00691 13671 ft 358 kts 333°
2026-04-25 21:16 48.43504 15.99014 14345 ft 361 kts 333°
2026-04-25 21:16 48.45767 15.97325 15016 ft 365 kts 333°
2026-04-25 21:16 48.48058 15.95613 15654 ft 369 kts 333°
2026-04-25 21:17 48.50367 15.93885 16286 ft 372 kts 333°
2026-04-25 21:17 48.52696 15.92140 16899 ft 375 kts 333°
2026-04-25 21:17 48.55047 15.90375 17488 ft 379 kts 333°
2026-04-25 21:17 48.57417 15.88582 18061 ft 382 kts 332°
2026-04-25 21:18 48.59770 15.86687 18623 ft 385 kts 331°
2026-04-25 21:18 48.62091 15.84712 19159 ft 389 kts 330°
2026-04-25 21:18 48.64443 15.82657 19686 ft 392 kts 329°
2026-04-25 21:18 48.66806 15.80577 20206 ft 395 kts 329°
2026-04-25 21:19 48.69196 15.78481 20707 ft 398 kts 329°
2026-04-25 21:19 48.71608 15.76383 21198 ft 401 kts 330°
2026-04-25 21:19 48.74043 15.74282 21672 ft 404 kts 330°
2026-04-25 21:19 48.76499 15.72175 22132 ft 407 kts 330°
2026-04-25 21:20 48.78976 15.70054 22581 ft 410 kts 330°
2026-04-25 21:20 48.79818 15.69333 22731 ft 411 kts 330°
2026-04-25 21:20 48.83982 15.65759 23459 ft 416 kts 330°
2026-04-25 21:20 48.86504 15.63585 23858 ft 418 kts 330°
2026-04-25 21:21 48.89058 15.61446 23986 ft 419 kts 334°
2026-04-25 21:21 48.91717 15.59652 24010 ft 419 kts 336°
2026-04-25 21:21 48.94393 15.57881 24008 ft 419 kts 336°
2026-04-25 21:21 48.97063 15.56113 24010 ft 419 kts 336°
2026-04-25 21:22 48.99753 15.54333 24310 ft 422 kts 336°
2026-04-25 21:22 49.02456 15.52544 24739 ft 424 kts 336°
2026-04-25 21:22 49.05135 15.50765 25132 ft 427 kts 336°
2026-04-25 21:22 49.07858 15.48951 25494 ft 429 kts 336°
2026-04-25 21:23 49.10601 15.47119 25863 ft 432 kts 336°
2026-04-25 21:23 49.13360 15.45276 26225 ft 434 kts 336°
2026-04-25 21:23 49.16134 15.43423 26580 ft 436 kts 336°
2026-04-25 21:23 49.18922 15.41558 26923 ft 439 kts 336°
2026-04-25 21:24 49.21728 15.39679 27252 ft 441 kts 336°
2026-04-25 21:24 49.24550 15.37788 27576 ft 444 kts 336°
2026-04-25 21:24 49.27389 15.35880 27898 ft 446 kts 336°
2026-04-25 21:24 49.30239 15.33961 28213 ft 448 kts 336°
2026-04-25 21:25 49.33101 15.32035 28516 ft 450 kts 336°
2026-04-25 21:25 49.35976 15.30098 28809 ft 452 kts 336°
2026-04-25 21:25 49.38865 15.28147 29088 ft 454 kts 336°
2026-04-25 21:25 49.41762 15.26186 29371 ft 456 kts 336°
2026-04-25 21:26 49.44671 15.24217 29643 ft 458 kts 336°
2026-04-25 21:26 49.47597 15.22239 29906 ft 460 kts 336°
2026-04-25 21:26 49.53417 15.18290 30002 ft 460 kts 336°
2026-04-25 21:27 49.59268 15.14309 30007 ft 459 kts 336°
2026-04-25 21:27 49.65114 15.10309 30002 ft 459 kts 336°
2026-04-25 21:28 49.70958 15.06320 30002 ft 459 kts 337°
2026-04-25 21:28 49.76922 15.02785 30012 ft 459 kts 340°
2026-04-25 21:29 49.82926 14.99620 30002 ft 459 kts 341°
2026-04-25 21:29 49.88969 14.96390 30001 ft 459 kts 340°
2026-04-25 21:30 49.94979 14.93032 30011 ft 459 kts 340°
2026-04-25 21:30 49.99976 14.90194 30003 ft 459 kts 340°
2026-04-25 21:31 50.06983 14.86225 30003 ft 458 kts 340°
2026-04-25 21:31 50.11959 14.83416 30007 ft 458 kts 340°
2026-04-25 21:32 50.17946 14.80035 30002 ft 458 kts 340°
2026-04-25 21:32 50.23935 14.76639 30013 ft 458 kts 340°
2026-04-25 21:33 50.29917 14.73227 30011 ft 458 kts 340°
2026-04-25 21:33 50.35907 14.69807 30001 ft 458 kts 340°
2026-04-25 21:34 50.41900 14.66386 30016 ft 458 kts 340°
2026-04-25 21:34 50.47891 14.62957 30010 ft 458 kts 340°
2026-04-25 21:35 50.53893 14.59502 30002 ft 458 kts 339°
2026-04-25 21:35 50.59871 14.56046 30018 ft 458 kts 340°
2026-04-25 21:36 50.65861 14.52595 30015 ft 458 kts 340°
2026-04-25 21:36 50.71803 14.49151 30001 ft 458 kts 339°
2026-04-25 21:37 50.76816 14.46227 30019 ft 459 kts 339°
2026-04-25 21:37 50.83783 14.42160 30004 ft 459 kts 339°
2026-04-25 21:38 50.89766 14.38665 30003 ft 458 kts 339°
2026-04-25 21:38 50.95852 14.35628 30003 ft 459 kts 345°
2026-04-25 21:39 51.02037 14.33084 30005 ft 459 kts 345°
2026-04-25 21:39 51.08178 14.30549 30001 ft 459 kts 345°
2026-04-25 21:40 51.14359 14.27989 30017 ft 458 kts 345°
2026-04-25 21:40 51.20527 14.25420 30016 ft 458 kts 345°
2026-04-25 21:41 51.26695 14.22842 30001 ft 457 kts 345°
2026-04-25 21:41 51.32844 14.20264 30007 ft 457 kts 345°
2026-04-25 21:42 51.38959 14.17702 30002 ft 457 kts 345°
2026-04-25 21:42 51.45107 14.15131 30008 ft 457 kts 345°
2026-04-25 21:43 51.51261 14.12539 30018 ft 457 kts 345°
2026-04-25 21:43 51.57411 14.09947 30010 ft 456 kts 345°
2026-04-25 21:44 51.63560 14.07336 30001 ft 456 kts 345°
2026-04-25 21:45 51.72767 14.03419 30008 ft 456 kts 345°
2026-04-25 21:45 51.78901 14.00801 30003 ft 456 kts 345°
2026-04-25 21:46 51.85041 13.98172 30008 ft 456 kts 345°
2026-04-25 21:46 51.91174 13.95570 30018 ft 456 kts 345°
2026-04-25 21:47 51.97321 13.92977 30012 ft 456 kts 345°
2026-04-25 21:47 52.03463 13.90369 30002 ft 456 kts 345°
2026-04-25 21:48 52.09598 13.87747 30014 ft 456 kts 345°
2026-04-25 21:48 52.15696 13.85152 30002 ft 456 kts 345°
2026-04-25 21:49 52.21843 13.82524 30014 ft 456 kts 345°
2026-04-25 21:49 52.27982 13.79889 30015 ft 456 kts 345°
2026-04-25 21:50 52.34121 13.77249 30001 ft 456 kts 345°
2026-04-25 21:50 52.40260 13.74597 30016 ft 456 kts 345°
2026-04-25 21:51 52.46397 13.71933 30013 ft 456 kts 345°
2026-04-25 21:51 52.52534 13.69275 30002 ft 456 kts 345°
2026-04-25 21:52 52.58666 13.66613 30012 ft 456 kts 345°
2026-04-25 21:52 52.64800 13.63933 30018 ft 456 kts 345°
2026-04-25 21:53 52.70892 13.61254 30001 ft 456 kts 345°
2026-04-25 21:53 52.77024 13.58556 30019 ft 456 kts 345°
2026-04-25 21:54 52.83150 13.55849 30017 ft 456 kts 345°
2026-04-25 21:54 52.89283 13.53143 30002 ft 456 kts 345°
2026-04-25 21:55 52.95422 13.50439 30012 ft 456 kts 345°
2026-04-25 21:55 53.01557 13.47715 30012 ft 456 kts 345°
2026-04-25 21:56 53.07638 13.44990 30001 ft 456 kts 345°
2026-04-25 21:56 53.13766 13.42238 30012 ft 456 kts 345°
2026-04-25 21:57 53.19892 13.39492 30017 ft 456 kts 345°
2026-04-25 21:57 53.26014 13.36735 30002 ft 456 kts 345°
2026-04-25 21:58 53.32146 13.33970 30018 ft 456 kts 345°
2026-04-25 21:58 53.38276 13.31203 30019 ft 456 kts 345°
2026-04-25 21:59 53.44405 13.28420 30002 ft 456 kts 345°
2026-04-25 21:59 53.50490 13.25644 30013 ft 456 kts 344°
2026-04-25 22:00 53.59665 13.21452 30017 ft 455 kts 345°
2026-04-25 22:00 53.65784 13.18647 30002 ft 455 kts 344°
2026-04-25 22:01 53.71895 13.15823 30017 ft 456 kts 344°
2026-04-25 22:01 53.76983 13.13480 30001 ft 456 kts 344°
2026-04-25 22:02 53.84135 13.10175 30000 ft 455 kts 344°
2026-04-25 22:02 53.90207 13.07363 30007 ft 455 kts 344°
2026-04-25 22:03 53.96319 13.04521 30004 ft 455 kts 344°
2026-04-25 22:03 54.02417 13.01667 30001 ft 455 kts 344°
2026-04-25 22:04 54.08522 12.98796 30013 ft 455 kts 344°
2026-04-25 22:04 54.14620 12.95871 30008 ft 455 kts 343°
2026-04-25 22:05 54.20646 12.92545 30002 ft 455 kts 341°
2026-04-25 22:05 54.26635 12.89050 30008 ft 455 kts 341°
2026-04-25 22:06 54.32629 12.85602 29997 ft 452 kts 341°
2026-04-25 22:06 54.35583 12.83934 30013 ft 441 kts 341°
2026-04-25 22:06 54.38433 12.82337 30011 ft 432 kts 341°
2026-04-25 22:07 54.43140 12.79696 30002 ft 418 kts 341°
2026-04-25 22:07 54.49454 12.76124 30001 ft 403 kts 341°
2026-04-25 22:08 54.54719 12.73132 30002 ft 394 kts 341°
2026-04-25 22:08 54.59868 12.70183 30013 ft 386 kts 341°
2026-04-25 22:09 54.64895 12.67300 30012 ft 380 kts 341°
2026-04-25 22:09 54.69887 12.64443 30016 ft 375 kts 341°
2026-04-25 22:10 54.74817 12.61616 30010 ft 371 kts 341°
2026-04-25 22:10 54.77186 12.59887 30002 ft 369 kts 330°
2026-04-25 22:10 54.79309 12.57423 30007 ft 366 kts 319°
2026-04-25 22:11 54.82958 12.51280 30012 ft 364 kts 315°
2026-04-25 22:11 54.86531 12.45154 30015 ft 362 kts 315°
2026-04-25 22:12 54.90111 12.39024 30020 ft 360 kts 315°
2026-04-25 22:12 54.92491 12.34924 30012 ft 360 kts 315°
2026-04-25 22:13 54.97216 12.26788 30002 ft 358 kts 315°
2026-04-25 22:13 55.00898 12.20995 30015 ft 357 kts 330°
2026-04-25 22:14 55.03182 12.19375 30008 ft 356 kts 349°
2026-04-25 22:14 55.05640 12.19145 30016 ft 355 kts
2026-04-25 22:14 55.07993 12.20355 30024 ft 354 kts 28°
2026-04-25 22:14 55.09980 12.22852 30003 ft 353 kts 47°
2026-04-25 22:15 55.11390 12.26332 30001 ft 352 kts 66°
2026-04-25 22:15 55.12082 12.30411 30002 ft 351 kts 85°
2026-04-25 22:15 55.11981 12.34644 30020 ft 350 kts 104°
2026-04-25 22:16 55.09785 12.41628 29269 ft 354 kts 139°
2026-04-25 22:16 55.07747 12.43971 28025 ft 360 kts 159°
2026-04-25 22:16 55.05296 12.44981 26695 ft 366 kts 178°
2026-04-25 22:16 55.02762 12.44519 25308 ft 371 kts 197°
2026-04-25 22:17 55.00420 12.42587 23848 ft 376 kts 217°
2026-04-25 22:17 54.98531 12.39438 22291 ft 380 kts 229°
2026-04-25 22:17 54.96778 12.35954 20842 ft 383 kts 229°
2026-04-25 22:17 54.95049 12.32460 19594 ft 378 kts 230°
2026-04-25 22:18 54.93410 12.28940 18450 ft 372 kts 238°
2026-04-25 22:18 54.92535 12.24803 17387 ft 362 kts 264°
2026-04-25 22:18 54.92784 12.20523 16299 ft 355 kts 290°
2026-04-25 22:18 54.94083 12.16960 15189 ft 349 kts 317°
2026-04-25 22:19 54.95384 12.15364 14469 ft 346 kts 335°
2026-04-25 22:19 54.97698 12.14476 13375 ft 341 kts
2026-04-25 22:19 54.99948 12.15545 12286 ft 336 kts 31°
2026-04-25 22:19 55.01642 12.18265 11165 ft 331 kts 53°
2026-04-25 22:20 55.03428 12.22556 9704 ft 327 kts 54°
2026-04-25 22:20 55.04308 12.24681 9375 ft 312 kts 54°
2026-04-25 22:20 55.05527 12.27630 9154 ft 291 kts 54°
2026-04-25 22:20 55.06306 12.29514 9072 ft 288 kts 54°
2026-04-25 22:21 55.07074 12.31375 8997 ft 287 kts 54°
2026-04-25 22:21 55.08237 12.34194 9019 ft 287 kts 54°
2026-04-25 22:21 55.09403 12.37020 9012 ft 287 kts 54°
2026-04-25 22:21 55.10569 12.39846 9008 ft 287 kts 54°
2026-04-25 22:22 55.11720 12.42638 9009 ft 287 kts 54°
2026-04-25 22:22 55.12887 12.45469 9008 ft 287 kts 54°
2026-04-25 22:22 55.14052 12.48296 9008 ft 287 kts 54°
2026-04-25 22:22 55.15219 12.51128 9020 ft 287 kts 54°
2026-04-25 22:23 55.16388 12.53964 9004 ft 287 kts 54°
2026-04-25 22:23 55.17554 12.56797 9008 ft 287 kts 54°
2026-04-25 22:23 55.18762 12.59568 9011 ft 286 kts 44°
2026-04-25 22:23 55.20287 12.61812 9003 ft 286 kts 36°
2026-04-25 22:24 55.21923 12.63807 9004 ft 286 kts 33°
2026-04-25 22:24 55.23618 12.65621 8979 ft 285 kts 26°
2026-04-25 22:24 55.25350 12.67143 8350 ft 279 kts 26°
2026-04-25 22:24 55.27068 12.68708 7510 ft 277 kts 27°
2026-04-25 22:25 55.28756 12.70294 6693 ft 274 kts 28°
2026-04-25 22:25 55.30421 12.71887 5888 ft 271 kts 28°
2026-04-25 22:25 55.32059 12.73462 5231 ft 266 kts 26°
2026-04-25 22:25 55.33832 12.74346 5051 ft 267 kts
2026-04-25 22:26 55.35649 12.73855 5004 ft 266 kts 335°
2026-04-25 22:26 55.37117 12.71907 5011 ft 266 kts 310°
2026-04-25 22:26 55.38259 12.69336 5009 ft 267 kts 306°
2026-04-25 22:26 55.39348 12.66702 4842 ft 263 kts 305°
2026-04-25 22:27 55.40411 12.64108 4035 ft 260 kts 305°
2026-04-25 22:27 55.41405 12.61676 3325 ft 257 kts 305°
2026-04-25 22:27 55.42360 12.59006 3079 ft 257 kts 290°
2026-04-25 22:27 55.42616 12.55910 3002 ft 258 kts 268°
2026-04-25 22:28 55.42517 12.52749 3007 ft 259 kts 265°
2026-04-25 22:28 55.42377 12.49572 3009 ft 260 kts 265°
2026-04-25 22:28 55.42236 12.46500 3001 ft 244 kts 265°
2026-04-25 22:28 55.42106 12.43685 3002 ft 216 kts 265°
2026-04-25 22:29 55.42027 12.41077 3004 ft 212 kts 276°
2026-04-25 22:29 55.42563 12.38742 3009 ft 211 kts 312°
2026-04-25 22:29 55.43788 12.37379 3008 ft 212 kts 348°
2026-04-25 22:30 55.46700 12.38037 3010 ft 214 kts 14°
2026-04-25 22:30 55.48141 12.38732 3009 ft 214 kts 15°
2026-04-25 22:30 55.49572 12.39467 3009 ft 215 kts 22°
2026-04-25 22:30 55.50397 12.40395 3003 ft 211 kts 46°
2026-04-25 22:31 55.51136 12.43301 2832 ft 183 kts 72°
2026-04-25 22:31 55.51564 12.45550 2758 ft 197 kts 71°
2026-04-25 22:31 55.51983 12.47686 2668 ft 173 kts 69°
2026-04-25 22:31 55.52537 12.49449 2511 ft 157 kts 53°
2026-04-25 22:32 55.53239 12.50884 2272 ft 153 kts 45°
2026-04-25 22:32 55.53994 12.52189 1986 ft 151 kts 43°
2026-04-25 22:32 55.54765 12.53453 1569 ft 153 kts 42°
2026-04-25 22:32 55.55571 12.54695 1103 ft 152 kts 40°
2026-04-25 22:33 55.56365 12.55898 774 ft 152 kts 41°
2026-04-25 22:33 55.57157 12.57138 517 ft 151 kts 41°
2026-04-25 22:33 55.57952 12.58360 355 ft 151 kts 41°
2026-04-25 22:33 55.58741 12.59589 210 ft 149 kts 40°
2026-04-25 22:34 55.59516 12.60794 48 ft 144 kts 41°
2026-04-25 22:34 55.60146 12.61787 27 ft 87 kts 40°
2026-04-25 22:34 55.60420 12.62193 24 ft 26 kts 33°
2026-04-25 22:34 55.60584 12.62329 29 ft 27 kts 15°
2026-04-25 22:35 55.60674 12.62361 25 ft 0 kts 11°
2026-04-25 22:36 55.60700 12.62370 25 ft 14 kts 12°
2026-04-25 22:37 55.60768 12.62398 24 ft 0 kts 17°
2026-04-25 22:37 55.60792 12.62415 24 ft 16 kts 24°
2026-04-25 22:38 55.60922 12.62600 24 ft 26 kts 41°
2026-04-25 22:38 55.61065 12.62822 24 ft 28 kts 40°
2026-04-25 22:38 55.61218 12.63058 24 ft 29 kts 41°
2026-04-25 22:38 55.61333 12.63236 24 ft 19 kts 41°
2026-04-25 22:39 55.61436 12.63397 24 ft 21 kts 41°
2026-04-25 22:39 55.61555 12.63580 24 ft 18 kts 41°
2026-04-25 22:39 55.61563 12.63592 24 ft 0 kts 41°
2026-04-25 22:42 55.61564 12.63595 24 ft 3 kts 41°
2026-04-25 22:42 55.61644 12.63717 24 ft 22 kts 41°
2026-04-25 22:42 55.61662 12.63746 25 ft 0 kts 41°
2026-04-25 22:43 55.61698 12.63800 24 ft 26 kts 41°
2026-04-25 22:43 55.61794 12.63951 24 ft 13 kts 41°
2026-04-25 22:43 55.61859 12.64050 24 ft 12 kts 37°
2026-04-25 22:43 55.61948 12.64133 24 ft 18 kts 24°
2026-04-25 22:44 55.62077 12.64241 26 ft 15 kts 26°
2026-04-25 22:44 55.62128 12.64285 24 ft 0 kts 25°
2026-04-25 22:44 55.62171 12.64321 24 ft 17 kts 25°
2026-04-25 22:45 55.62235 12.64377 22 ft 10 kts 33°
2026-04-25 22:45 55.62292 12.64564 26 ft 17 kts 66°
2026-04-25 22:45 55.62308 12.64621 27 ft 0 kts 54°
2026-04-25 22:45 55.62366 12.64674 24 ft 17 kts
2026-04-25 22:46 55.62412 12.64670 25 ft 6 kts 347°
2026-04-25 22:46 55.62488 12.64507 24 ft 26 kts 303°
2026-04-25 22:46 55.62562 12.64307 24 ft 8 kts 303°
2026-04-25 22:46 55.62567 12.64294 24 ft 3 kts 304°
2026-04-25 22:47 55.62622 12.64275 24 ft 11 kts 25°
2026-04-25 22:47 55.62674 12.64315 24 ft 10 kts 22°
2026-04-25 22:47 55.62687 12.64325 24 ft 0 kts 23°
2026-04-25 22:49 55.62650 12.64298 26 ft 11 kts 24°
2026-04-25 22:49 55.62640 12.64291 26 ft 0 kts 29°
2026-04-25 22:49 55.62639 12.64290 24 ft 2 kts 29°
2026-04-25 22:49 55.62611 12.64257 24 ft 2 kts 59°
2026-04-25 22:50 55.62602 12.64278 27 ft 10 kts 134°
2026-04-25 22:50 55.62522 12.64414 24 ft 19 kts 122°
2026-04-25 22:50 55.62471 12.64553 25 ft 8 kts 123°
2026-04-25 22:50 55.62442 12.64630 24 ft 7 kts 123°
2026-04-25 22:51 55.62417 12.64697 24 ft 6 kts 124°
2026-04-25 22:51 55.62394 12.64757 25 ft 6 kts 122°
2026-04-25 22:51 55.62337 12.64914 26 ft 21 kts 123°
2026-04-25 22:51 55.62296 12.65025 26 ft 10 kts 123°
2026-04-25 22:52 55.62287 12.65172 27 ft 10 kts 70°
2026-04-25 22:52 55.62294 12.65263 24 ft 6 kts 88°
2026-04-25 22:52 55.62296 12.65332 24 ft 1 kts 84°
2026-04-25 22:52 55.62302 12.65336 26 ft 2 kts 22°
2026-04-25 22:53 55.62423 12.65343 27 ft 15 kts 29°
2026-04-25 22:53 55.62442 12.65415 25 ft 5 kts 88°
2026-04-25 22:53 55.62443 12.65473 24 ft 5 kts 89°
2026-04-25 22:53 55.62443 12.65524 24 ft 0 kts 89°
2026-04-25 22:56 55.62444 12.65526 24 ft 0 kts 71°
2026-04-25 22:57 55.62462 12.65535 24 ft 0 kts 16°
2026-04-25 22:57 55.62488 12.65548 24 ft 5 kts 19°
2026-04-25 22:57 55.62495 12.65554 24 ft 0 kts 22°
2026-04-25 22:58 55.62500 12.65557 24 ft 4 kts 22°
2026-04-25 22:58 55.62511 12.65566 24 ft 0 kts 23°
2026-04-25 22:58 55.62519 12.65572 24 ft 0 kts 24°